GLOBAL-4 (44499 NORAD) Tracking and Keplerian Element Data

This shows tracking and keplerian element data for the satellite.

Feedback or suggestion? Click here.




ElementValue
Catalog44499
NameGLOBAL-4
Epoch Orbit407
Epoch Day258.59033338
Epoch Year2019
RAAN312.0511
Inclination45.0165
Eccentricity0.0007932
Argument of Perigee62.292
Mean Anonmoly64.2929
Mean Motion15.07649373
Decay Rate-8E-08
L11 44499U 19054E 19258.59033338 -.00000008 00000-0 15346-4 0 9990
L22 44499 45.0165 312.0511 0007932 62.2920 64.2929 15.07649373 4076

Live tracking and technical data element details for GLOBAL-4 (NORAD 44499). GLOBAL-4 can be tracked NOW for your location showing map with azimuth and elevation plus other details from your city location.

Track the satellite on the map from your city or location and see movement details for azimuth, elevation, latitude, longitude, range, height, and movement on the map or in text.







IsCatalogInMostPopularTable: catalog: 44499, numindb: 17
Update: records affected: 1



GetName: 44499 GLOBAL-4

Hit Count: updated at: Tue, 22 Oct 2019 23:38:02 GMT